User: anonymous   Login
Location: Unspecified
(0.0000°N, 0.0000°E)
Time: 06:17:36
(UTC+00:00)
Language:

JUGNU - Orbit

View from above orbital plane
View from above orbital plane
View from above satellite
View from above satellite

Ground track
Ground track

The orbit data is extracted from the following two-line orbital elements,

1 37839U 11058B   18175.61894778 +.00000309 +00000-0 +23081-4 0  9997
2 37839 019.9627 352.1869 0018955 328.9677 092.4555 14.12621947346314
Epoch (UTC): 24 June 2018 14:51:17
Eccentricity: 0.0018955
inclination: 19.9627°
perigee height: 837 km
apogee height: 864 km
right ascension of ascending node: 352.1869°
argument of perigee: 328.9677°
revolutions per day: 14.12621947
mean anomaly at epoch: 92.4555°
orbit number at epoch: 34631

The dashed part of the orbit path shows where the satellite is in the earth's shadow,  

DLR